Change the Weather History Date:

Tuesday, February 11, 2014

  Actual Average Record
Temperature  
Mean Temperature -1 °F 26 °F  
Max Temperature 14 °F 35 °F 62 °F (1987)
Min Temperature -17 °F 16 °F -17 °F (1936)
Degree Days  
Heating Degree Days 66 39  
Month to date heating degree days 640 446  
Since 1 July heating degree days 4804 4268  
Cooling Degree Days 0 0  
Month to date cooling degree days 0 0  
Year to date cooling degree days 0 0  
Moisture  
Dew Point -7 °F    
Average Humidity 73    
Maximum Humidity 92    
Minimum Humidity 53    
Precipitation  
Precipitation 0.00 in 0.04 in 0.46 in (1999)
Month to date precipitation 0.11 0.38  
Year to date precipitation 0.23 1.28  
Sea Level Pressure  
Sea Level Pressure 30.47 in    
Wind  
Wind Speed 7 mph (South)    
Max Wind Speed 20 mph    
Max Gust Speed 22 mph    
Visibility 10 miles    
Events      
T = Trace of Precipitation, MM = Missing Value Source: NWS Daily Summary

Daily Weather History Graph

Daily Weather History Graph

Search for Another Location

Airport or City:

Trip Planner

Search our weather history database for the weather conditions in past years. The results will help you decide how hot, cold, wet, or windy it might be!

Date:

Astronomy

Feb. 11, 2014 Rise Set
Actual Time 7:09 AM CST 5:39 PM CST
Civil Twilight 6:40 AM CST 6:07 PM CST
Nautical Twilight 6:08 AM CST 6:40 PM CST
Astronomical Twilight 5:36 AM CST 7:12 PM CST
Moon 2:59 PM CST (2/11) 4:47 AM CST (2/11)
Length of Visible Light 11h 26m
Length of Day
10h 29m
Waxing Gibbous, 91% of the Moon is Illuminated
Feb 11
Waxing Gibbous
Feb 14
Full
Feb 22
Last Quarter
Mar 1
New
Mar 8
First Quarter

Hourly Weather History & Observations

Time (CST) Temp. Windchill Dew Point Humidity Pressure Visibility Wind Dir Wind Speed Gust Speed Precip Events Conditions
12:53 AM -11.0 °F -24.6 °F -15.0 °F 83% 30.58 in 10.0 mi WNW 5.8 mph - N/A   Clear
1:53 AM -13.0 °F -25.1 °F -16.1 °F 86% 30.57 in 10.0 mi NW 4.6 mph - N/A   Clear
2:53 AM -9.0 °F - -14.1 °F 79% 30.56 in 10.0 mi Calm Calm - N/A   Mostly Cloudy
3:53 AM -8.0 °F -16.9 °F -13.0 °F 79% 30.55 in 10.0 mi NNW 3.5 mph - N/A   Scattered Clouds
4:53 AM -11.9 °F - -15.0 °F 86% 30.56 in 10.0 mi Calm Calm - N/A   Clear
5:53 AM -11.9 °F - -16.1 °F 82% 30.57 in 10.0 mi Calm Calm - N/A   Clear
6:53 AM -11.0 °F - -16.1 °F 78% 30.57 in 10.0 mi Calm Calm - N/A   Clear
7:53 AM -9.9 °F - -15.0 °F 78% 30.58 in 10.0 mi Calm Calm - N/A   Clear
8:53 AM -9.0 °F - -11.0 °F 91% 30.58 in 10.0 mi Calm Calm - N/A   Clear
9:53 AM -2.9 °F -11.2 °F -7.1 °F 82% 30.57 in 10.0 mi South 3.5 mph - N/A   Clear
10:53 AM 1.9 °F -10.6 °F -6.0 °F 69% 30.55 in 10.0 mi South 6.9 mph - N/A   Clear
11:53 AM 6.1 °F -5.6 °F -4.0 °F 63% 30.52 in 10.0 mi South 6.9 mph - N/A   Clear
12:53 PM 10.0 °F -1.9 °F -2.9 °F 56% 30.50 in 10.0 mi South 8.1 mph - N/A   Clear
1:53 PM 12.0 °F -0.4 °F -2.0 °F 53% 30.46 in 10.0 mi South 9.2 mph - N/A   Clear
2:53 PM 12.9 °F 2.6 °F -0.9 °F 54% 30.43 in 10.0 mi South 6.9 mph - N/A   Clear
3:53 PM 14.0 °F 2.0 °F -0.9 °F 52% 30.40 in 10.0 mi South 9.2 mph - N/A   Clear
4:53 PM 12.9 °F 0.7 °F -2.0 °F 51% 30.38 in 10.0 mi SSE 9.2 mph - N/A   Clear
5:53 PM 9.0 °F -3.2 °F -2.9 °F 59% 30.38 in 10.0 mi SE 8.1 mph - N/A   Clear
6:53 PM 8.1 °F -6.2 °F -4.0 °F 58% 30.37 in 10.0 mi SSE 10.4 mph - N/A   Clear
7:53 PM 10.0 °F -5.2 °F -2.0 °F 58% 30.35 in 10.0 mi SSE 12.7 mph - N/A   Overcast
8:53 PM 10.0 °F -7.1 °F -2.0 °F 58% 30.34 in 10.0 mi South 16.1 mph - N/A   Mostly Cloudy
9:53 PM 10.9 °F -5.4 °F -0.0 °F 61% 30.34 in 10.0 mi South 15.0 mph - N/A   Overcast
10:53 PM 9.0 °F -7.3 °F -0.9 °F 64% 30.32 in 10.0 mi South 13.8 mph - N/A   Overcast
11:53 PM 10.0 °F -8.1 °F -0.9 °F 61% 30.30 in 10.0 mi South 18.4 mph - N/A   Overcast